Tracking 29040 objects as of 15-Jun-2024
HD Live streaming from Space Station
objects crossing your sky now

SL-12 R/B(2)

Track SL-12 R/B(2) now!


NORAD ID: 11568
Int'l Code: 1975-123F
Perigee: 35,661.1 km
Apogee: 35,806.3 km
Inclination: 4.4 °
Period: 1,433.0 minutes
Semi major axis: 42104 km
RCS: 3.1622 m2 (large)
Launch date: December 22, 1975
Source: Commonwealth of Independent States (former USSR) (CIS)
Launch site: TYURATAM MISSILE AND SPACE COMPLEX (TTMTR)

Note: This is a ROCKET BODY
Your satellite tracking list
Your tracking list is empty




NASA's NSSDC Master Catalog

Two Line Element Set (TLE):
1 11568U 75123F   24166.15067819  .00000090  00000-0  00000-0 0  9994
2 11568   4.4372 276.7274 0017237 192.4367 214.6829  1.00486289114635
Source of the keplerian elements: AFSPC